GW3876 Weather Reports


time (UTC)temp
C
wind
direction
speed
KPH
gust
KPH
rain 1hr
cm
rain 24hr
cm
rain mn
cm
humidity
%
barometer
mb
20260507030010 12 81 0.0 1.6 0.00 0.79 0.79 93 1008.3
20260507024510 12 79 0.0 1.6 0.00 0.79 0.79 93 1008.2
20260507023004 12 84 0.0 3.2 0.00 0.79 0.79 93 1008.1
20260507021540 12 214 0.0 3.2 0.00 0.79 0.79 92 1008.3
20260507014522 12 141 0.0 3.2 0.00 0.79 0.79 92 1008.8
20260507013016 12 195 0.0 3.2 0.00 0.79 0.79 92 1008.4
20260507011516 13 120 0.0 3.2 0.00 0.79 0.79 92 1008.3
20260507010018 13 136 0.0 3.2 0.00 0.79 0.79 92 1008.6
20260507004504 13 217 3.2 8.0 0.00 0.79 0.79 92 1008.7
20260507001525 13 158 3.2 9.7 0.00 0.79 0.79 92 1008.7
20260507000022 13 195 1.6 11.3 0.00 0.79 0.79 92 1008.6
20260506233016 13 253 0.0 16.1 0.00 0.79 0.79 92 1008.5
20260506231519 13 236 3.2 9.7 0.00 0.79 0.79 92 1008.3
20260506230012 13 226 0.0 6.4 0.00 0.79 0.79 92 1008.2
20260506224507 13 118 3.2 14.5 0.00 0.79 0.79 92 1008.2
20260506221502 13 107 1.6 9.7 0.13 0.79 0.79 92 1008.0
20260506220003 13 254 4.8 11.3 0.28 0.79 0.79 91 1008.1
20260506214503 13 198 8.0 19.3 0.38 0.79 0.79 91 1008.1
20260506213022 13 150 3.2 16.1 0.41 0.74 0.74 91 1008.1
20260506211512 13 136 6.4 17.7 0.43 0.66 0.66 90 1008.3
20260506210010 13 221 6.4 12.9 0.30 0.51 0.51 90 1008.6
20260506204507 13 219 4.8 14.5 0.20 0.41 0.41 89 1008.8
20260506203013 14 113 3.2 11.3 0.13 0.33 0.33 89 1008.7
20260506200004 14 222 3.2 17.7 0.05 0.20 0.20 88 1008.7
20260506194519 14 206 3.2 19.3 0.10 0.20 0.20 87 1008.9
20260506193018 13 223 8.0 20.9 0.15 0.20 0.20 88 1009.3
20260506191512 13 235 9.7 30.6 0.18 0.20 0.20 88 1009.5
20260506190008 13 135 4.8 9.7 0.15 0.15 0.15 88 1009.3
20260506184509 13 150 8.0 19.3 0.10 0.10 0.10 86 1009.7
20260506183005 14 133 3.2 12.9 0.05 0.05 0.05 85 1009.7
20260506181506 15 276 8.0 19.3 0.03 0.03 0.03 82 1010.1
20260506180008 15 171 11.3 19.3 0.00 0.00 0.00 79 1010.5
20260506174519 16 153 11.3 25.7 0.00 0.00 0.00 77 1010.6
20260506173016 16 285 4.8 24.1 0.00 0.00 0.00 77 1010.8
20260506171525 16 207 8.0 33.8 0.00 0.00 0.00 77 1010.8
20260506170002 16 200 16.1 27.4 0.00 0.00 0.00 77 1011.4
20260506164502 16 158 6.4 32.2 0.00 0.00 0.00 76 1011.0
20260506163003 16 147 9.7 25.7 0.00 0.00 0.00 74 1011.2
20260506161503 17 91 4.8 17.7 0.00 0.00 0.00 73 1011.5
20260506160004 17 252 9.7 29.0 0.00 0.00 0.00 74 1012.0
20260506154503 17 202 9.7 32.2 0.00 0.00 0.00 73 1011.8
20260506153002 17 248 12.9 22.5 0.00 0.00 0.00 73 1012.0
20260506151503 17 246 14.5 27.4 0.00 0.00 0.00 71 1011.8
20260506150002 17 162 9.7 38.6 0.00 0.00 0.00 73 1011.9
20260506144502 18 247 4.8 25.7 0.00 0.00 0.00 73 1012.0
20260506143006 17 207 6.4 29.0 0.00 0.00 0.00 74 1012.2
20260506141503 17 145 4.8 25.7 0.00 0.00 0.00 75 1012.2
20260506140007 16 124 6.4 22.5 0.00 0.00 0.00 76 1012.2
20260506134501 16 227 6.4 27.4 0.00 0.00 0.00 76 1011.9
20260506133004 17 122 8.0 19.3 0.00 0.00 0.00 75 1011.8
20260506131503 17 243 6.4 20.9 0.00 0.00 0.00 74 1012.1
20260506130005 16 144 6.4 29.0 0.00 0.00 0.00 76 1012.2
20260506124504 16 192 6.4 17.7 0.00 0.00 0.00 76 1012.3
20260506121505 16 236 14.5 27.4 0.00 0.00 0.00 77 1012.4
20260506120003 15 207 6.4 14.5 0.00 0.00 0.00 79 1012.4
20260506114503 15 217 1.6 19.3 0.00 0.00 0.00 81 1012.4
20260506113005 15 192 6.4 17.7 0.00 0.00 0.00 82 1012.4
20260506110006 13 162 4.8 8.0 0.00 0.00 0.00 84 1012.5
20260506104504 13 133 4.8 11.3 0.00 0.00 0.00 85 1012.4
20260506103013 13 156 3.2 19.3 0.00 0.00 0.00 85 1012.3
20260506101505 13 167 6.4 16.1 0.00 0.00 0.00 85 1012.2
20260506100006 13 123 4.8 12.9 0.00 0.00 0.00 85 1012.1
20260506094510 13 221 4.8 12.9 0.00 0.00 0.00 85 1012.3
20260506093008 13 129 3.2 17.7 0.00 0.00 0.00 85 1012.1
20260506091508 13 162 1.6 12.9 0.00 0.00 0.00 84 1012.1
20260506090008 13 197 1.6 8.0 0.00 0.00 0.00 84 1012.4
20260506084515 14 218 1.6 19.3 0.00 0.00 0.00 83 1012.5
20260506083005 14 285 4.8 12.9 0.00 0.00 0.00 83 1012.5
20260506081509 14 177 4.8 14.5 0.00 0.00 0.00 82 1012.5
20260506073003 14 212 6.4 19.3 0.00 0.00 0.00 82 1012.7
20260506071503 14 181 1.6 9.7 0.00 0.00 0.00 82 1012.7
20260506061512 14 197 1.6 11.3 0.00 0.00 0.00 81 1012.8
20260506044502 15 277 4.8 12.9 0.00 0.00 0.00 77 1013.3
20260506043012 15 195 1.6 16.1 0.00 0.00 0.00 76 1013.3
20260506041523 15 210 6.4 24.1 0.00 0.00 0.00 75 1013.3
20260506040010 15 213 3.2 20.9 0.00 0.00 0.00 74 1013.3
20260506034508 15 143 4.8 17.7 0.00 0.00 0.00 73 1013.3
20260506031509 16 229 11.3 32.2 0.00 0.00 0.00 71 1013.1